TimeEDT,TemperatureF,Dew PointF,Humidity,Sea Level PressureIn,VisibilityMPH,Wind Direction,Wind SpeedMPH,Gust SpeedMPH,PrecipitationIn,Events,Conditions,WindDirDegrees,DateUTC
12:54 AM,55.9,54.0,93,30.10,10.0,Calm,Calm,-,N/A,,Overcast,0,2013-10-05 04:54:00
1:54 AM,55.9,54.0,93,30.11,10.0,Calm,Calm,-,N/A,,Overcast,0,2013-10-05 05:54:00
2:54 AM,55.9,54.0,93,30.10,10.0,Calm,Calm,-,0.00,,Overcast,0,2013-10-05 06:54:00
3:54 AM,55.0,54.0,96,30.12,10.0,Calm,Calm,-,N/A,,Overcast,0,2013-10-05 07:54:00
4:54 AM,55.0,48.9,80,30.12,10.0,Calm,Calm,-,N/A,,Overcast,0,2013-10-05 08:54:00
5:54 AM,54.0,48.9,83,30.13,10.0,Calm,Calm,-,N/A,,Overcast,0,2013-10-05 09:54:00
6:54 AM,53.1,48.9,86,30.14,10.0,Calm,Calm,-,N/A,,Overcast,0,2013-10-05 10:54:00
7:54 AM,54.0,48.9,83,30.15,10.0,Calm,Calm,-,N/A,,Overcast,0,2013-10-05 11:54:00
8:54 AM,55.9,50.0,80,30.16,10.0,Calm,Calm,-,0.00,,Overcast,0,2013-10-05 12:54:00
9:54 AM,59.0,39.9,49,30.15,10.0,Calm,Calm,-,N/A,,Overcast,0,2013-10-05 13:54:00
10:54 AM,60.1,42.1,51,30.14,10.0,Calm,Calm,-,N/A,,Overcast,0,2013-10-05 14:54:00
11:54 AM,60.1,39.9,47,30.14,10.0,Calm,Calm,-,N/A,,Overcast,0,2013-10-05 15:54:00
12:54 PM,62.1,42.1,48,30.12,10.0,Calm,Calm,-,N/A,,Overcast,0,2013-10-05 16:54:00
1:54 PM,62.1,42.1,48,30.11,10.0,Variable,3.5,-,N/A,,Overcast,0,2013-10-05 17:54:00
2:54 PM,64.0,44.1,48,30.09,10.0,SSW,4.6,-,N/A,,Overcast,200,2013-10-05 18:54:00
3:54 PM,64.9,44.1,47,30.09,10.0,Calm,Calm,-,N/A,,Overcast,0,2013-10-05 19:54:00
4:54 PM,63.0,46.9,56,30.10,10.0,Calm,Calm,-,N/A,,Overcast,0,2013-10-05 20:54:00
5:54 PM,61.0,52.0,72,30.11,10.0,Calm,Calm,-,N/A,,Overcast,0,2013-10-05 21:54:00
6:54 PM,57.0,52.0,83,30.12,10.0,Calm,Calm,-,N/A,,Clear,0,2013-10-05 22:54:00
7:54 PM,55.0,52.0,89,30.12,10.0,Calm,Calm,-,N/A,,Overcast,0,2013-10-05 23:54:00
8:54 PM,54.0,51.1,90,30.12,10.0,Calm,Calm,-,N/A,,Mostly Cloudy,0,2013-10-06 00:54:00
9:54 PM,52.0,50.0,93,30.14,10.0,WNW,3.5,-,N/A,,Mostly Cloudy,300,2013-10-06 01:54:00
10:54 PM,48.9,46.9,93,30.15,10.0,Calm,Calm,-,N/A,,Clear,0,2013-10-06 02:54:00
11:54 PM,46.0,45.0,96,30.17,10.0,WNW,3.5,-,N/A,,Clear,300,2013-10-06 03:54:00